| time (UTC) | temp F | wind direction | speed MPH | gust MPH | rain 1hr in | rain 24hr in | rain mn in | humidity % | barometer mb |
| 20260503235331 | 72 | 306 | 25.0 | 39.0 | 0.00 | 0.00 | 0.00 | 28 | 995.4 |
| 20260503234314 | 72 | 310 | 24.0 | 38.0 | 0.00 | 0.00 | 0.00 | 28 | 995.5 |
| 20260503233240 | 73 | 313 | 24.0 | 38.0 | 0.00 | 0.00 | 0.00 | 27 | 995.4 |
| 20260503232210 | 74 | 316 | 23.0 | 37.0 | 0.00 | 0.00 | 0.00 | 25 | 995.4 |
| 20260503231159 | 74 | 327 | 22.0 | 34.0 | 0.00 | 0.00 | 0.00 | 25 | 995.3 |
| 20260503230130 | 75 | 306 | 23.0 | 39.0 | 0.00 | 0.00 | 0.00 | 24 | 995.3 |
| 20260503223943 | 76 | 313 | 23.0 | 37.0 | 0.00 | 0.00 | 0.00 | 22 | 995.3 |
| 20260503222939 | 76 | 304 | 23.0 | 34.0 | 0.00 | 0.00 | 0.00 | 24 | 995.1 |
| 20260503221907 | 75 | 296 | 19.0 | 30.0 | 0.00 | 0.00 | 0.00 | 27 | 995.4 |
| 20260503220911 | 74 | 323 | 21.0 | 34.0 | 0.00 | 0.00 | 0.00 | 30 | 995.4 |
| 20260503215901 | 75 | 261 | 23.0 | 34.0 | 0.00 | 0.00 | 0.00 | 27 | 995.5 |
| 20260503214856 | 74 | 271 | 21.0 | 33.0 | 0.00 | 0.00 | 0.00 | 27 | 996.0 |
| 20260503213904 | 74 | 286 | 20.0 | 30.0 | 0.00 | 0.00 | 0.00 | 27 | 996.3 |
| 20260503211735 | 76 | 228 | 23.0 | 36.0 | 0.00 | 0.00 | 0.00 | 23 | 996.8 |
| 20260503210707 | 76 | 263 | 24.0 | 36.0 | 0.00 | 0.00 | 0.00 | 22 | 997.1 |
| 20260503205636 | 77 | 246 | 23.0 | 35.0 | 0.00 | 0.00 | 0.00 | 22 | 997.4 |
| 20260503203503 | 75 | 263 | 21.0 | 36.0 | 0.00 | 0.00 | 0.00 | 24 | 998.1 |
| 20260503202501 | 76 | 270 | 22.0 | 36.0 | 0.00 | 0.00 | 0.00 | 24 | 998.3 |
| 20260503200314 | 75 | 282 | 22.0 | 33.0 | 0.00 | 0.00 | 0.00 | 24 | 999.0 |
| 20260503195330 | 76 | 267 | 23.0 | 36.0 | 0.00 | 0.00 | 0.00 | 23 | 999.3 |
| 20260503194317 | 75 | 253 | 19.0 | 36.0 | 0.00 | 0.00 | 0.00 | 25 | 999.5 |
| 20260503193248 | 74 | 250 | 18.0 | 31.0 | 0.00 | 0.00 | 0.00 | 25 | 999.9 |
| 20260503191153 | 73 | 268 | 16.0 | 32.0 | 0.00 | 0.00 | 0.00 | 26 | 1000.5 |
| 20260503190156 | 72 | 254 | 19.0 | 32.0 | 0.00 | 0.00 | 0.00 | 25 | 1000.8 |
| 20260503185202 | 72 | 248 | 16.0 | 28.0 | 0.00 | 0.00 | 0.00 | 24 | 1001.2 |
| 20260503182955 | 70 | 265 | 18.0 | 25.0 | 0.00 | 0.00 | 0.00 | 25 | 1001.7 |
| 20260503181937 | 70 | 265 | 15.0 | 25.0 | 0.00 | 0.00 | 0.00 | 26 | 1002.1 |
| 20260503180935 | 70 | 271 | 14.0 | 25.0 | 0.00 | 0.00 | 0.00 | 26 | 1002.4 |
| 20260503174837 | 71 | 267 | 17.0 | 27.0 | 0.00 | 0.00 | 0.00 | 24 | 1002.8 |
| 20260503173838 | 71 | 267 | 19.0 | 27.0 | 0.00 | 0.00 | 0.00 | 25 | 1003.1 |
| 20260503172812 | 71 | 279 | 15.0 | 24.0 | 0.00 | 0.00 | 0.00 | 26 | 1003.3 |
| 20260503170709 | 70 | 269 | 17.0 | 27.0 | 0.00 | 0.00 | 0.00 | 25 | 1003.9 |
| 20260503150650 | 64 | 223 | 13.0 | 21.0 | 0.00 | 0.00 | 0.00 | 35 | 1006.1 |
| 20260503131148 | 50 | 235 | 13.0 | 20.0 | 0.00 | 0.00 | 0.00 | 57 | 1007.6 |
| 20260503130138 | 49 | 228 | 12.0 | 19.0 | 0.00 | 0.00 | 0.00 | 57 | 1007.7 |
| 20260503081412 | 37 | 214 | 3.0 | 5.0 | 0.00 | 0.00 | 0.00 | 74 | 1010.2 |
| 20260503080408 | 37 | 216 | 3.0 | 4.0 | 0.00 | 0.00 | 0.00 | 73 | 1010.2 |
| 20260503072244 | 38 | 244 | 3.0 | 4.0 | 0.00 | 0.00 | 0.00 | 71 | 1010.6 |
| 20260503071256 | 39 | 245 | 3.0 | 4.0 | 0.00 | 0.00 | 0.00 | 70 | 1010.6 |
| 20260503070227 | 39 | 245 | 3.0 | 5.0 | 0.00 | 0.00 | 0.00 | 70 | 1010.9 |
| 20260503053837 | 41 | 192 | 3.0 | 5.0 | 0.00 | 0.00 | 0.00 | 66 | 1010.9 |
| 20260503052828 | 42 | 194 | 4.0 | 6.0 | 0.00 | 0.00 | 0.00 | 65 | 1011.0 |
| 20260503051830 | 42 | 188 | 4.0 | 6.0 | 0.00 | 0.00 | 0.00 | 65 | 1010.9 |
| 20260503050805 | 43 | 175 | 4.0 | 5.0 | 0.00 | 0.00 | 0.00 | 65 | 1011.1 |
| 20260503045751 | 44 | 174 | 3.0 | 5.0 | 0.00 | 0.00 | 0.00 | 60 | 1011.1 |
| 20260503044759 | 46 | 167 | 2.0 | 4.0 | 0.00 | 0.00 | 0.00 | 59 | 1011.2 |
| 20260503043736 | 48 | 20 | 0.0 | 1.0 | 0.00 | 0.00 | 0.00 | 53 | 1011.2 |
| 20260503042713 | 50 | 19 | 0.0 | 1.0 | 0.00 | 0.00 | 0.00 | 49 | 1011.2 |
| 20260503041653 | 50 | 19 | 1.0 | 2.0 | 0.00 | 0.00 | 0.00 | 50 | 1011.3 |
| 20260503040639 | 50 | 20 | 1.0 | 2.0 | 0.00 | 0.00 | 0.00 | 50 | 1011.4 |
| 20260503035617 | 50 | 19 | 0.0 | 1.0 | 0.00 | 0.00 | 0.00 | 50 | 1011.5 |
| 20260503034621 | 51 | 19 | 1.0 | 1.0 | 0.00 | 0.00 | 0.00 | 49 | 1011.5 |
| 20260503033605 | 51 | 19 | 1.0 | 1.0 | 0.00 | 0.00 | 0.00 | 48 | 1011.5 |
| 20260503032623 | 51 | 20 | 0.0 | 1.0 | 0.00 | 0.00 | 0.00 | 47 | 1011.5 |
| 20260503031636 | 52 | 20 | 0.0 | 1.0 | 0.00 | 0.00 | 0.00 | 47 | 1011.5 |
| 20260503030627 | 52 | 20 | 0.0 | 0.0 | 0.00 | 0.00 | 0.00 | 46 | 1011.6 |
| 20260503025633 | 53 | 20 | 0.0 | 1.0 | 0.00 | 0.00 | 0.00 | 46 | 1011.5 |
| 20260503023449 | 54 | 19 | 1.0 | 2.0 | 0.00 | 0.00 | 0.00 | 44 | 1011.5 |
| 20260503022428 | 55 | 21 | 1.0 | 3.0 | 0.00 | 0.00 | 0.00 | 43 | 1011.5 |
| 20260503021419 | 55 | 22 | 2.0 | 5.0 | 0.00 | 0.00 | 0.00 | 42 | 1011.5 |
| 20260503020423 | 56 | 21 | 4.0 | 6.0 | 0.00 | 0.00 | 0.00 | 42 | 1011.6 |
| 20260503015406 | 58 | 18 | 5.0 | 7.0 | 0.00 | 0.00 | 0.00 | 40 | 1011.5 |
| 20260503014404 | 59 | 13 | 6.0 | 10.0 | 0.00 | 0.00 | 0.00 | 36 | 1011.4 |
| 20260503013423 | 60 | 15 | 6.0 | 13.0 | 0.00 | 0.00 | 0.00 | 35 | 1011.3 |
| 20260503012443 | 61 | 0 | 7.0 | 15.0 | 0.00 | 0.00 | 0.00 | 33 | 1011.4 |
| 20260503010336 | 62 | 0 | 11.0 | 16.0 | 0.00 | 0.00 | 0.00 | 31 | 1011.4 |
| 20260503005344 | 62 | 9 | 11.0 | 18.0 | 0.00 | 0.00 | 0.00 | 30 | 1011.3 |
| 20260503004354 | 63 | 355 | 10.0 | 20.0 | 0.00 | 0.00 | 0.00 | 30 | 1011.3 |
| 20260503003335 | 63 | 330 | 10.0 | 20.0 | 0.00 | 0.00 | 0.00 | 29 | 1011.3 |
| 20260503001209 | 63 | 0 | 13.0 | 22.0 | 0.00 | 0.00 | 0.00 | 29 | 1011.3 |
| 20260503000233 | 64 | 5 | 14.0 | 22.0 | 0.00 | 0.00 | 0.00 | 28 | 1011.2 |